Location: Sungai Bunut
(2.6333°N, 113.7333°E)
Time: 19:31:35
(UTC+00:00)

GPS 2-12 Rocket1 - Pass Details

Date: 16 October 2021
Orbit: 585 x 651 km, 20.0° (Epoch: 08 December)

Event Time Altitude Azimuth Distance (km) Brightness Sun altitude
Exits shadow 21:11:01 23° 306° (NW) 1,265 4.1 -15.1°
Maximum altitude 21:13:40 62° 20° (NNE) 652 3.2 -14.4°
Drops below altitude 10° 21:18:01 10° 102° (ESE) 1,890 7.0 -13.4°
Sets 21:20:21 0° 105° (ESE) 2,790 8.4 -12.8°
